User: anonymous   Login
Location: Grasslands National Park East Block
(49.0708°N, 106.5295°W)
Time: 08:12:45
(UTC-06:00)
Language:

Courier 1B - Orbit

View from above orbital plane
View from above orbital plane
View from above satellite
View from above satellite

Ground track
Ground track

The orbit data is extracted from the following two-line orbital elements,

1    58U 60013A   19262.81439119  .00000084  00000-0 -36732-6 0  9999
2    58  28.3294  32.7213 0165047 340.3395  19.0846 13.46319155902514
Epoch (UTC): 19 September 2019 19:32:43
Eccentricity: 0.0165047
inclination: 28.3294°
perigee height: 962 km
apogee height: 1209 km
right ascension of ascending node: 32.7213°
argument of perigee: 340.3395°
revolutions per day: 13.46319155
mean anomaly at epoch: 19.0846°
orbit number at epoch: 90251

The dashed part of the orbit path shows where the satellite is in the earth's shadow,  

DLR